Location: Temecula
(33.4977°N, 117.1073°W)
Time: 04:37:14
(UTC-07:00)

ISS - Visible Passes

Search period start: 14 May 2021 00:00
Search period end: 24 May 2021 00:00
Orbit: 417 x 422 km, 51.6° (Epoch: 14 May)

Date Brightness Start Highest point End Pass type
(mag) Time Alt. Az. Time Alt. Az. Time Alt. Az.
14 May -3.1 04:51:02 10° NW 04:54:23 58° NE 04:57:42 10° ESE visible
14 May -2.4 21:31:29 10° WSW 21:34:40 41° NW 21:37:52 10° NNE visible
15 May -1.8 04:03:48 10° NNW 04:06:52 32° NE 04:09:57 10° ESE visible
15 May -3.7 20:43:52 10° SW 20:47:12 79° NW 20:50:34 10° NE visible
15 May -0.2 22:23:38 10° NW 22:24:29 11° NNW 22:25:20 10° NNW visible
16 May -1.0 03:16:44 10° NNW 03:19:19 20° NE 03:21:53 10° E visible
16 May -3.2 04:53:04 10° WNW 04:56:11 35° SW 04:59:17 10° SSE visible
16 May -0.5 21:34:40 10° WNW 21:36:48 16° NNW 21:38:57 10° N visible
17 May-0.202:33:43ENE02:33:43ENE02:27:11NNWvisible
17 May -3.9 04:07:12 28° WNW 04:08:48 71° SW 04:12:09 10° SE visible
17 May -1.2 20:46:24 10° W 20:49:12 24° NW 20:52:00 10° NNE visible
19 May -0.2 20:50:38 10° NW 20:51:27 11° NNW 20:52:15 10° NNW visible
